[[{"header":{"parameterUnit":"m.s-1","parameterCategory":1,"la1":30.2992,"la2":30.254,"lo1":-89.0895,"lo2":-89.0443,"dy":0.0025,"dx":0.0025,"nx":19,"ny":19,"refTime":"2026-05-04T21:00:00:Z","depth":0,"parameterNumber":2,"parameterNumberName":"U-component_of_WINDS"},"data":[0,0,0,-0.789,-0.7892,-0.8026,-0.8026,-0.8182,-0.8183,0,0,0,0,0,0,0,0,0,0,0,-0.7841,-0.7842,-0.789,-0.7893,-0.8025,-0.8026,-0.8181,-0.8183,0,0,0,0,0,0,0,0,0,0,0,-0.7841,-0.7842,-0.7843,-0.7893,-0.8025,-0.8026,-0.8181,-0.8086,0,0,0,0,0,0,0,0,0,0,-0.7959,-0.7905,-0.7841,-0.7843,-0.7894,-0.8025,-0.8026,-0.8082,-0.8092,-0.8115,0,-0.8133,0,-0.816,-0.8192,-0.8193,0,0,0,-0.79,-0.7897,-0.7941,-0.7843,-0.7895,-0.8025,-0.7968,-0.8088,-0.8099,-0.8128,-0.8135,-0.8141,-0.8163,-0.8193,-0.8194,-0.8302,-0.8302,0,0,-0.7892,-0.786,-0.7933,-0.7948,-0.7926,-0.7963,-0.7972,-0.8095,-0.81,-0.8136,-0.8145,-0.8165,-0.8194,-0.8195,-0.8302,-0.8302,0,0,0,-0.7866,-0.7855,-0.7896,-0.7941,-0.7966,-0.7967,-0.7977,-0.8095,-0.8111,-0.8147,-0.8167,-0.8195,-0.8197,-0.8302,-0.8302,-0.8279,0,0,0,-0.7862,-0.784,-0.7893,-0.7874,-0.7964,-0.8032,-0.7973,-0.8102,-0.8117,-0.8166,-0.8195,-0.8198,-0.8302,-0.8302,-0.8279,-0.8274,0,0,0,-0.7836,-0.7837,-0.7853,-0.7872,-0.7928,-0.8031,-0.8054,-0.8106,-0.8129,-0.8193,-0.8198,-0.8302,-0.8302,-0.828,-0.8274,-0.8292,0,0,0,-0.7798,-0.7831,-0.7852,-0.7897,-0.7927,-0.8015,-0.8054,-0.8122,-0.8174,-0.8196,-0.8302,-0.8302,-0.828,-0.8274,-0.8292,-0.8301,-0.8302,0,0,-0.7822,-0.7832,-0.7861,-0.7884,-0.796,-0.7998,-0.8071,-0.815,-0.8185,-0.8261,-0.8265,-0.8279,-0.8274,-0.8292,-0.8319,-0.8319,0,0,0,-0.7858,-0.7878,-0.7906,-0.7953,-0.8014,-0.8065,-0.8135,-0.8165,-0.8231,-0.8218,-0.8292,-0.829,-0.8302,-0.8308,-0.8308,-0.832,-0.8304,-0.8304,-0.8304,-0.7845,-0.7889,-0.7939,-0.7999,-0.8045,-0.8117,-0.8158,-0.821,-0.8241,-0.8258,-0.828,-0.8291,-0.8297,-0.8297,-0.831,-0.8289,-0.8289,-0.8289,-0.8289,-0.7883,-0.7918,-0.7959,-0.8022,-0.8068,-0.8122,-0.8193,-0.8213,-0.8271,-0.8278,-0.8291,-0.8294,-0.8296,-0.8309,-0.8288,-0.8288,-0.8288,-0.8288,-0.8289,-0.7879,-0.7903,-0.7938,-0.8012,-0.8063,-0.8123,-0.8176,-0.8217,-0.8255,-0.8268,-0.8296,-0.8296,-0.8301,-0.8278,-0.8278,-0.8278,-0.8279,-0.8279,-0.8279,-0.786,-0.79,-0.794,-0.8006,-0.8042,-0.8095,-0.8168,-0.8205,-0.8256,-0.8281,-0.8282,-0.831,-0.8289,-0.8282,-0.8279,-0.8279,-0.8279,-0.8279,-0.8279,-0.7882,-0.7884,-0.7944,-0.798,-0.8062,-0.811,-0.8161,-0.8233,-0.8269,-0.8294,-0.832,-0.8298,-0.8312,-0.8312,-0.8307,-0.8311,-0.8311,-0.8311,-0.8311,-0.7878,-0.7889,-0.796,-0.8014,-0.8073,-0.8125,-0.8192,-0.825,-0.8309,-0.8334,-0.834,-0.8337,-0.8335,-0.835,-0.8349,-0.8345,-0.8359,-0.8359,-0.8359,-0.7893,-0.7912,-0.7961,-0.8019,-0.8086,-0.8142,-0.8207,-0.8268,-0.8336,-0.8362,-0.8355,-0.8353,-0.8348,-0.8344,-0.8368,-0.8366,-0.8359,0,0]},{"header":{"parameterUnit":"m.s-1","parameterCategory":1,"la1":30.2992,"la2":30.254,"lo1":-89.0895,"lo2":-89.0443,"dy":0.0025,"dx":0.0025,"nx":19,"ny":19,"refTime":"2026-05-04T21:00:00:Z","depth":0,"parameterNumber":3,"parameterNumberName":"V-component_of_WINDS"},"data":[0,0,0,4.8866,4.8865,4.8846,4.8846,4.8828,4.8828,0,0,0,0,0,0,0,0,0,0,0,4.8877,4.8877,4.8866,4.8865,4.8846,4.8846,4.8828,4.8828,0,0,0,0,0,0,0,0,0,0,0,4.8877,4.8877,4.8877,4.8865,4.8846,4.8846,4.8828,4.884,0,0,0,0,0,0,0,0,0,0,4.8857,4.8873,4.8877,4.8877,4.8865,4.8846,4.8846,4.884,4.8839,4.884,0,4.8844,0,4.8836,4.8827,4.8827,0,0,0,4.886,4.8874,4.8865,4.8877,4.8865,4.8846,4.8853,4.8839,4.8838,4.8839,4.8844,4.8843,4.8836,4.8827,4.8827,4.886,4.886,0,0,4.8861,4.8876,4.8866,4.8864,4.887,4.8854,4.8853,4.8838,4.8844,4.8844,4.8842,4.8836,4.8827,4.8827,4.8859,4.886,0,0,0,4.8868,4.8877,4.8867,4.8865,4.8861,4.8853,4.8852,4.8844,4.884,4.8842,4.8835,4.8827,4.8827,4.8859,4.8859,4.8895,0,0,0,4.8868,4.888,4.8868,4.8876,4.8862,4.8853,4.8859,4.8841,4.8839,4.8835,4.8827,4.8827,4.8858,4.8859,4.8893,4.8909,0,0,0,4.8876,4.8881,4.8881,4.8877,4.8869,4.8853,4.8848,4.8841,4.8835,4.8827,4.8827,4.8858,4.8859,4.8891,4.8906,4.8924,0,0,0,4.8888,4.8908,4.8881,4.8902,4.887,4.8876,4.8848,4.885,4.8847,4.8827,4.8858,4.8859,4.8891,4.8904,4.8922,4.8943,4.8952,0,0,4.8921,4.8913,4.8924,4.89,4.8915,4.8878,4.8897,4.8879,4.8863,4.8861,4.8862,4.8894,4.8905,4.8924,4.9001,4.9008,0,0,0,4.894,4.8948,4.8949,4.8949,4.8939,4.8932,4.891,4.8905,4.8904,4.8866,4.8904,4.8911,4.8921,4.893,4.8937,4.8945,4.8864,4.8864,4.8864,4.9005,4.8989,4.9008,4.8991,4.8991,4.8972,4.8971,4.896,4.8938,4.8949,4.8948,4.8997,4.9008,4.9013,4.9022,4.8957,4.8957,4.8957,4.8957,4.9054,4.9064,4.9043,4.9054,4.9037,4.9044,4.9028,4.9015,4.902,4.8995,4.9002,4.8977,4.9022,4.903,4.8959,4.8959,4.8959,4.8958,4.8958,4.9095,4.9098,4.9094,4.9097,4.9101,4.9082,4.9091,4.9074,4.9057,4.9065,4.9064,4.9064,4.9062,4.9066,4.9066,4.9067,4.9067,4.9067,4.9067,4.914,4.9135,4.9145,4.9141,4.9142,4.9141,4.9127,4.9126,4.9122,4.9109,4.9109,4.9089,4.903,4.9016,4.9069,4.9069,4.9069,4.9068,4.9068,4.9195,4.9182,4.9198,4.92,4.9196,4.9204,4.9184,4.9187,4.9185,4.919,4.917,4.913,4.9118,4.9112,4.9101,4.9173,4.9173,4.9173,4.9173,4.9231,4.9226,4.9241,4.9246,4.9249,4.9235,4.9255,4.9246,4.9233,4.9231,4.9219,4.9202,4.9197,4.9189,4.9182,4.9171,4.9259,4.9259,4.9259,4.9265,4.9261,4.9281,4.9272,4.927,4.9269,4.9289,4.9295,4.9278,4.9262,4.923,4.9226,4.9199,4.9191,4.9172,4.9161,4.9141,0,0]}]]